Regional Weather Roundup
Issued by NWS

Home | Current Version | Previous Version | Text Only | Print | Product List | Glossary On
Versions: 1 2 3 4 5 6 7 8 9 10 11 12 13 14 15 16 17 18 19 20 21 22 23 24 25 26 27 28 29 30 31 32 33 34 35 36 37 38 39 40 41 42 43 44 45 46 47 48 49 50
000
ASHW40 PHFO 281712
RWRHI

WEATHER ROUNDUP FOR HAWAII
NATIONAL WEATHER SERVICE HONOLULU HI
700 AM HST SAT MAY 28 2016

THIS IS AN AUTOMATED REPORT THAT HAS NOT BEEN QUALITY CONTROLLED.

NOTE..."FAIR" INDICATES FEW OR NO CLOUDS BELOW 12,000 FEET WITH NO
SIGNIFICANT WEATHER AND/OR OBSTRUCTIONS TO VISIBILITY.

* - THESE SITES REPORT LIMITED FIELDS

HIZ001>004-281800-
KAUAI-NIIHAU-

CITY           SKY/WX    TMP DP  RH WIND       PRES   REMARKS
LIHUE APT      MOSUNNY   76  69  79 E7        30.04R
PORT ALLEN*      N/A     73 N/A N/A NE6         N/A
POIPU*           N/A     72 N/A N/A N2          N/A
PRINCEVILLE*     N/A     70 N/A N/A S3          N/A
KOKOLE POINT*  NOT AVBL
MOLOAA DAIRY*    N/A     75  70  83 SE5         N/A
WAIMEA HTS*    NOT AVBL
PUU OPAE*      NOT AVBL
PUU LUA*       NOT AVBL
MAKAHA RIDGE*  NOT AVBL
$$

HIZ005>011-281800-
OAHU-

CITY           SKY/WX    TMP DP  RH WIND       PRES   REMARKS
HONOLULU       MOSUNNY   76  69  79 CALM      30.03R
KALAELOA       SUNNY     73  67  81 NE5       30.04R
KANEOHE MCB    LGT RAIN  77  69  76 E7        30.01R
WHEELER FIELD  FAIR      70  69  95 SW2       30.03R
BELLOWS*       NOT AVBL
KAHUKU*        NOT AVBL
WHEELER*       NOT AVBL
WAIANAE HARBOR NOT AVBL
DILLINGHAM*      N/A     66  64  94 MISG        N/A
KAHUKU TRN*      N/A     72  63  73 CALM        N/A
KAWAILOA*        N/A     70  64  83 SE3G12      N/A
KII*             N/A     77  70  78 E12         N/A
MAKUA RANGE*     N/A     72  66  83 E5G10       N/A
OAHU FOREST NW NOT AVBL
SCHOFIELD BRK*   N/A     70  68  94 CALM        N/A
SCHOFIELD S*   NOT AVBL
WAIANAE VLY*   NOT AVBL
KUAOKALA*      NOT AVBL
HONOULIUULI*   NOT AVBL
MOKUOLOE IS*   NOT AVBL
PALEHUA*       NOT AVBL
WAIAWA PHB*    NOT AVBL
$$

HIZ012>013-281800-
MOLOKAI-

CITY           SKY/WX    TMP DP  RH WIND       PRES   REMARKS
MOLOKAI AIRPT  SUNNY     75  66  73 N3        30.04R
KALAUPAPA      NOT AVBL
MAKAPULAPAI*   NOT AVBL
MOLOKAI 1*     NOT AVBL
PUU ALII*      NOT AVBL
$$

HIZ016-281800-
KAHOOLAWE-

CITY           SKY/WX    TMP DP  RH WIND       PRES   REMARKS
KAHOOLAWE*     NOT AVBL
HAKIOAWA*      NOT AVBL
HONOKANAIA*      N/A     75  65  70 NE13G22   29.94S
KANELOA*         N/A     72  66  83 NE12G21   30.08R
KEALIALALO*    NOT AVBL
LUA MAKIKA*    NOT AVBL
$$

HIZ014>015-281800-
LANAI-

CITY           SKY/WX    TMP DP  RH WIND       PRES   REMARKS
LANAI CITY     FAIR      70  66  87 NE6       30.09R
LANAI 1*       NOT AVBL
$$

HIZ017>028-281800-
MAUI-

CITY           SKY/WX    TMP DP  RH WIND       PRES   REMARKS
KAHULUI        MOSUNNY   73  67  81 SE5       30.03R
KAPALUA-W MAUI MOSUNNY   73  66  78 CALM      30.03R
HANA AIRPORT   NOT AVBL
HANA*            N/A     73 N/A N/A S3          N/A
HALEAKALA SUMM   N/A     46  28  49 NW5G17      N/A
MAALAEA BAY*   NOT AVBL
HALEAKALA*     NOT AVBL
KAUPO GAP*     NOT AVBL
KULA 1*          N/A     46  45  93 NE3         N/A
$$

HIZ023>026-281800-
BIG ISLAND OF HAWAII COAST AND LOWER SLOPES-

CITY           SKY/WX    TMP DP  RH WIND       PRES   REMARKS
KAILUA KONA    CLOUDY    78  64  61 N5        30.01R
HILO           LGT RAIN  70  67  90 E3        30.07R FOG
HONOKAA*         N/A     70 N/A N/A VRB1        N/A
KAWAIHAE MWT*    N/A     75 N/A N/A N5          N/A
KAWAIHAE*      NOT AVBL
SOUTH POINT*     N/A     70 N/A N/A N14G20      N/A
UPOLU AIRPORT*   N/A    N/A N/A N/A E10         N/A
KAMUELA*       MOSUNNY   64  57  77 NE10      30.13S
HAKALAU*         N/A     53  52  97 SW3         N/A
KALOKO-HONOKO* NOT AVBL
PALI 2*          N/A     63  59  88 S6G12       N/A
KEALAKOMO*       N/A     73  66  78 NW2G18      N/A
KAUPULEHU*     NOT AVBL
KAPAPALA*        N/A     66  64  93 VRB5        N/A
LOWER KAHUKU*  NOT AVBL
PUHE CS*       NOT AVBL
PUHO CS*       NOT AVBL
PTA KEAMUKU*     N/A     63  59  88 CALM        N/A
WAIKOLOA*      NOT AVBL
$$

HIZ027>028-281800-
BIG ISLAND OF HAWAII INTERIOR AND SUMMMITS-

CITY           SKY/WX    TMP DP  RH WIND       PRES   REMARKS
BRADSHAW FIELD CLOUDY    56  52  86 S2        30.34R
MK VISITOR CEN   N/A     48  34  57 CALM        N/A
MAUNA KEA*       N/A     36   0  21 N38         N/A  WCI  21
MAUNA LOA*     NOT AVBL
MAUNA LOA 1*   NOT AVBL
PTA KIPUKA*      N/A     54  52  94 SE5         N/A
PTA RANGE 17*    N/A     70  66  88 SE2         N/A
PTA WEST*        N/A     61  59  94 SE3         N/A
NENE CABIN*    NOT AVBL
AHUMOA*        NOT AVBL
PTA PORTABLE*  NOT AVBL
PUU MALI*        N/A     54  52  94 W3          N/A
$$

HIC003-281800-
NORTHWEST ISLANDS-

CITY           SKY/WX    TMP DP  RH WIND       PRES   REMARKS
MIDWAY ISLAND  MOCLDY    72  64  78 E13       30.15R
MIDWAY NOS*    NOT AVBL
FRENCH FRIGATE NOT AVBL
$$

PHZ110>124-180-281800-
BUOY REPORTS

STATION/POSITION TIME  TEMP    WIND        PRES    WAVE   SWELL
                       AIR SEA DIR/SP/G            HT/PER HT/DIR
                 (UTC) (F)     (DEG/KT/KT) (MB)    (FT/S) (FT/D)
BUOY 51001       1600   77 80   50/ 10/ 14 1017.3R
BUOY 51101       1650   78 79  330/  4/  6 1017.0R   4/ 7   5/ 60
BUOY 51100       NOT AVBL
BUOY 51002       1650   76 79   70/ 12/ 16 1015.8R   5/ 7   5/100
BUOY 51003       1650   78 80   90/  2/  4 1016.5R   4/14   3/200
BUOY 51004       1650   77 79   60/ 14/ 17 1015.9R   6/ 8   5/ 90
BARBERS PT BUOY  NOT AVBL
WAIMEA BAY BUOY  1604      78                N/A     3/10   2/340
KAILUA BAY BUOY  1611      78                N/A     4/ 6   2/360
LANAI BUOY       1615      79                N/A     3/15   2/220
BARBERS PT 2     1703      79                N/A     3/15   2/210
PAUWELA MAUI     1609      78                N/A     5/ 8   2/340
HILO             1612      78                N/A     5/ 8   2/130
KANEOHE BAY BUOY 1606      77                N/A     4/10
HANALEI KAUAI    NOT AVBL
KAHULUI HARBOR   1600   71 79   60/  2/  4 1015.9R
HONOLULU HARBOR  1600   75 79   CALM  /  2 1016.9R
KILO NALU        NOT AVBL
HILO HARBOR      1600   71 78  250/  9/ 14 1016.8R
MOKUOLOE         1600   77 80  110/  9/ 11 1016.4R
NAWILIWILI       1600   73 81  260/  2/  3 1016.6R
WHOTS BUOY       NOT AVBL
BUOY 51028       NOT AVBL
$$

......................KEY........................................
  SKY/WX - SKY CONDITIONS/PRESENT WEATHER
  TMP    - TEMPERATURE IN FAHRENHEIT
  DWPT   - DEWPOINT IN FAHRENHEIT
  RH     - RELATIVE HUMIDITY IN PERCENT
  WIND   - DIRECTION AND SPEED /MPH FOR ISLANDS...KTS FOR BUOYS/
  PRES   - MEAN SEA LEVEL PRESSURE IN INCHES OF HG
  VSB    - VISIBILITY IN MILES
  HX     - HEAT INDEX
  WCI    - WIND CHILL INDEX
  VRB    - VARIABLE WIND DIRECTION
  N/A    - NOT AVAILABLE




USA.gov is the U.S. government's official web portal to all federal, state and local government web resources and services.